SCP
0 0 0 0 0 0 0 0 0 0 0 0 0 0 0 0 0 0 0 0 0 0 0 0 0 0 0 0 0 0 0 0 0 0 0 0 0 0 0 0 0 0 0 0 0 0 0 0 0 0 0 0 0 0
0 0 0 0 0 0 0 0 0 0 0 0 0 0 0 0 0 0 0 0 0 0 0 0 0 0 0 0 0 0 0 0 0 0 0 0 0 0 0 0 0 0 0 0 0 0 0 0 0 0 0 0 0 0
0 0 0 0 0 0 0 0 0 0 0 0 0 0 0 0 0 0 0 0 0 0 0 0 0 0 0 0 0 0 0 0 0 0 0 0 0 0 0 0 0 0 0 0 -0 0 -0 -0 0 0 0 0 0 0
0 0 0 0 0 0 0 0 0 0 0 0 0 0 0 0 0 0 0 0 0 0 0 0 0 0 0 0 0 0 0 0 0 0 0 0 0 0 0 0 0 0 0 -0 0 -0 -0 0 0 0 0 0 0 0
0 0 0 0 0 0 0 0 0 0 0 0 0 0 0 0 0 0 0 0 0 0 0 0 0 0 0 0 0 0 0 0 0 0 0 0 0 0 0 0 0 0 -0 -0 -0 -0 -0 0 0 0 0 0 0 -0
0 0 0 0 0 0 0 0 0 0 0 0 0 0 0 0 0 0 0 0 0 0 0 0 0 0 0 0 0 0 -0 0 0 0 0 0 0 0 0 0 0 0 -0 -0 -0 0 0 0 0 0 0 0 0 -0
0 0 0 0 0 0 0 0 0 0 0 0 0 0 0 0 0 0 0 0 0 0 0 0 0 0 0 -0 0 0 0 0 0 0 0 0 0 0 0 -0 -0 0 0 0 0 0 0 0 0 0 0 0 0 0
0 0 0 0 0 0 0 0 0 0 0 0 0 0 0 0 0 0 0 0 0 0 0 0 0 0 0 0 -0 0 0 0 0 0 0 0 0 0 -0 -0 0 0 0 0 0 0 0 0 0 0 0 -0 -0 0
0 0 0 0 0 0 0 0 0 0 0 0 0 0 0 0 0 0 0 0 0 0 0 0 0 0 0 0 0 0 0 -0 0 0 0 0 0 0 -0 0 0 0 0 0 0 0 0 0 0 0 0 0 -0 -0
0 0 0 0 0 0 0 0 0 0 0 0 0 0 0 0 0 0 0 0 0 0 0 0 0 0 0 0 0 0 0 0 -0 -0 0 0 0 -0 -0 -0 0 0 0 0 0 0 0 -0 -0 -0 0 0 -0 -0
0 0 0 0 0 0 0 0 0 0 0 0 0 0 0 0 0 0 0 0 0 0 0 -0 0 0 0 0 0 0 0 -0 0 0 0 0 0 -0 -0 -0 0 0 0 0 0 0 0 0 0 0 0 0 0 -0
0 0 0 0 0 0 0 0 0 0 0 0 0 0 0 0 0 0 0 0 0 0 -0 0 0 0 0 0 0 0 0 -0 0 0 0 -0 0 -0 -0 -0 -0 0 0 0 0 0 -0 -0 -0 -0 -0 0 0 0
0 0 0 0 0 0 0 0 0 0 0 0 0 0 0 0 0 0 0 0 0 0 0 0 0 0 0 0 0 0 -0 -0 -0 -0 -0 0 -0 -0 -0 -0 0 0 0 0 0 -0 -0 -0 -0 -0 -0 0 0 0
0 -0 0 0 0 0 0 0 0 0 0 0 0 0 0 0 0 0 0 0 0 0 0 0 0 0 0 0 0 0 0 0 -0 -0 -0 0 -0 -0 -0 -0 -0 0 0 0 0 -0 -0 -0 -0 -0 -0 -0 0 0
0 0 0 0 0 0 0 0 0 0 0 0 0 0 0 0 0 0 0 0 0 0 0 0 -0 0 0 -0 -0 0 0 0 0 0 0 -0 -0 -0 -0 -0 -0 -0 0 0 0 -0 -0 -0 0 0 -0 0 -0 0
0 0 0 0 0 0 0 0 0 0 0 0 0 0 0 0 0 0 0 0 0 0 0 -0 -0 -0 -0 -0 0 0 0 0 0 0 0 -0 -0 -0 -0 -0 -0 -0 0 0 0 0 -0 -0 -0 0 0 0 0 0
0 0 0 0 0 0 0 0 0 0 0 0 0 0 0 0 0 0 0 0 0 0 -0 -0 -0 -0 -0 0 0 0 0 0 0 0 0 -0 -0 -0 -0 -0 -0 -0 0 0 0 0 -0 -0 -0 -0 0 0 -0 0
0 0 0 0 0 0 0 0 0 0 0 0 0 0 0 0 0 0 0 0 0 0 -0 -0 -0 -0 0 0 0 0 0 0 -0 -0 0 0 -0 -0 -0 -0 -0 -0 -0 0 0 0 0 -0 -0 -0 -0 -0 -0 0
0 0 0 0 0 0 0 0 0 0 0 0 0 0 0 0 0 0 0 0 0 0 0 0 0 -0 -0 -0 0 0 0 0 -0 0 0 0 -0 -0 -0 -0 -0 -0 -0 -0 0 0 0 0 -0 -0 -0 -0 -0 -0
0 0 0 0 0 0 0 0 0 0 0 0 0 0 0 0 0 0 -0 0 0 0 0 0 0 0 0 0 0 0 -0 -0 -0 0 0 0 0 -0 0 -0 -0 -0 -0 -0 0 0 0 0 0 -0 0 -0 -0 -0
0 0 0 0 0 0 0 0 0 0 0 0 0 0 0 0 0 0 -0 0 0 0 0 0 0 0 0 0 0 -0 -0 -0 -0 -0 0 0 0 0 0 0 0 -0 -0 0 0 0 0 0 0 0 0 -0 -0 -0
0 0 0 0 0 0 0 0 0 0 0 0 0 0 0 0 0 0 0 0 0 -0 0 0 0 0 0 0 0 0 -0 0 0 0 0 0 0 0 0 0 0 0 -0 0 -0 0 0 0 0 -0 -0 0 0 0
0 0 0 0 0 0 0 0 0 0 0 0 0 0 0 0 0 0 0 0 0 0 0 0 0 0 0 0 0 -0 -0 -0 0 0 0 0 0 0 0 0 0 0 0 -0 0 0 0 0 0 -0 -0 -0 -0 -0
0 0 0 0 0 0 0 0 0 0 0 0 0 0 0 0 0 0 0 0 0 0 0 0 0 0 0 0 0 0 0 -0 -0 0 0 0 0 0 0 0 0 0 0 0 -0 0 0 0 0 0 -0 -0 -0 -0
0 0 0 0 0 0 0 0 0 0 0 0 0 0 0 0 0 0 0 0 0 0 0 0 0 0 0 0 0 0 -0 -0 -0 0 0 0 0 0 0 0 0 0 0 0 0 -0 0 0 0 0 0 -0 -0 -0
0 0 0 0 0 0 0 0 0 0 0 0 0 0 0 0 0 0 0 0 0 0 0 0 0 0 0 0 0 0 -0 -0 -0 -0 -0 0 0 0 0 0 0 0 0 0 0 0 0 0 -0 -0 0 0 -0 -0
0 0 0 0 0 0 0 0 0 0 0 0 0 0 0 0 0 0 0 0 0 0 0 0 0 0 0 0 0 0 0 -0 -0 -0 -0 -0 0 0 0 0 0 0 0 0 0 0 0 0 0 0 0 0 -0 -0
0 0 0 0 0 -0 0 0 0 0 0 0 0 0 0 0 0 0 0 0 0 0 0 0 0 0 0 0 0 0 0 -0 -0 0 -0 -0 -0 -0 0 0 0 0 0 0 0 0 0 0 0 0 0 0 0 0
0 0 0 0 0 0 0 0 0 0 0 0 0 0 0 0 0 0 0 0 0 0 0 0 0 0 0 0 0 -0 -0 -0 -0 0 -0 0 0 0 0 0 0 0 0 0 0 0 0 0 0 0 0 0 0 0
0 0 0 0 0 0 0 0 0 0 0 0 0 0 0 0 0 0 0 0 0 0 0 0 0 0 0 0 0 0 -0 -0 -0 -0 0 0 0 0 0 0 0 0 0 0 0 0 0 0 0 -0 0 0 0 0
0 0 0 0 0 0 0 0 0 0 0 0 0 0 0 0 0 0 0 0 0 0 0 0 0 0 0 0 0 0 -0 -0 -0 -0 -0 -0 -0 0 0 0 0 0 0 0 0 0 0 0 0 0 0 0 0 0
0 0 0 0 0 0 0 0 0 0 0 0 0 0 0 0 0 0 0 0 0 0 0 0 0 0 0 0 0 0 -0 -0 -0 -0 -0 -0 0 0 0 0 0 0 0 0 0 0 0 0 0 0 0 0 0 0
0 0 0 0 0 0 0 0 0 0 0 0 0 0 0 0 0 0 0 0 0 0 0 0 0 0 0 0 0 0 0 -0 0 0 0 0 0 -0 0 0 0 0 0 0 0 0 0 0 0 0 0 0 0 0
Wind_Speed_500mb
39 39 35 36 37 37 38 40 39 42 44 43 45 45 42 41 39 31 13 10 12 17 57 56 47 47 29 21 6 14 20 8 9 4 3 5 5 6 8 6 5 11 10 7 5 9 13 18 9 10 11 26 32 43
40 40 38 34 37 37 37 37 39 39 44 45 44 44 42 40 36 30 25 14 26 31 49 80 75 73 75 82 56 24 19 10 7 3 5 6 6 6 4 6 5 5 8 4 11 11 13 24 29 36 51 45 67 38
42 40 40 36 36 38 38 37 38 41 45 47 45 44 42 40 36 29 39 35 30 27 46 17 12 13 26 14 12 22 24 26 18 18 4 5 9 4 4 7 7 8 11 7 11 8 16 46 50 37 38 43 32 35
44 42 42 38 36 39 38 38 38 39 46 46 45 46 44 42 40 39 42 39 20 14 11 21 35 54 28 35 36 39 41 19 17 17 8 5 4 8 6 8 20 19 15 10 12 18 37 35 35 63 47 34 40 50
47 44 43 39 37 39 39 38 37 39 45 45 42 45 44 44 44 38 15 14 6 14 10 33 58 22 30 13 22 31 47 43 22 7 6 5 8 8 6 6 8 9 8 5 11 29 31 37 54 17 27 45 58 53
48 46 44 40 37 38 39 39 38 38 43 43 38 42 40 40 40 30 1 15 16 13 10 9 28 31 42 40 15 22 41 46 33 11 8 10 16 5 6 7 14 22 36 49 40 44 49 55 18 29 44 45 46 49
49 47 45 41 37 37 37 37 38 43 45 39 35 38 34 28 30 12 5 0 5 1 8 13 18 21 41 37 7 21 37 24 18 9 11 9 10 11 5 12 30 38 46 43 39 50 45 15 18 36 31 34 45 49
50 47 46 41 36 36 36 35 37 42 43 36 33 35 29 23 6 7 10 12 8 10 6 4 8 20 20 12 3 5 5 9 9 9 5 7 6 14 9 22 35 36 40 35 37 13 14 20 27 33 44 40 48 49
49 48 46 40 35 34 33 33 38 42 38 33 29 25 6 7 3 10 22 20 6 7 3 4 5 7 24 17 13 1 5 5 8 5 6 6 4 8 15 26 38 45 29 39 24 13 18 29 37 35 43 43 49 48
49 48 46 39 34 31 28 30 37 37 34 27 8 3 4 6 9 24 3 1 3 4 7 5 8 7 17 13 8 9 5 3 5 9 10 7 6 36 37 52 53 44 25 15 15 25 28 33 38 41 35 40 49 42
53 49 45 38 31 26 24 28 31 30 27 13 7 3 8 11 5 3 4 5 7 5 6 12 16 10 14 6 6 8 5 4 5 3 5 5 4 32 72 67 47 14 11 18 19 16 21 27 32 35 35 45 47 36
51 47 43 35 27 21 21 25 24 21 18 16 9 4 3 2 3 3 6 9 6 4 10 10 18 20 14 9 6 10 5 5 7 12 6 7 10 55 63 70 38 13 16 14 13 19 34 40 33 32 40 48 45 35
50 45 40 32 24 19 17 22 20 14 13 4 2 1 2 1 4 4 6 5 6 5 7 13 13 12 11 7 5 4 5 5 25 7 8 5 47 77 84 65 21 10 9 12 17 32 47 45 34 39 35 35 34 36
48 43 36 31 25 17 16 18 12 7 3 4 5 6 7 4 5 2 2 3 5 16 22 29 19 8 7 4 0 4 5 7 7 10 6 15 59 70 65 66 52 30 13 17 25 34 45 46 36 37 35 40 36 41
46 39 37 33 23 17 14 11 5 5 7 5 5 4 7 4 13 18 18 24 28 34 45 36 23 8 1 3 1 2 6 10 6 4 7 50 72 77 76 68 57 36 17 19 25 32 46 47 40 38 40 46 49 50
43 42 40 28 23 16 13 9 10 7 5 5 7 3 6 9 12 18 15 20 23 29 30 14 5 8 10 8 9 12 6 7 10 16 51 66 72 72 72 75 58 42 23 12 16 25 39 46 42 40 41 49 53 57
45 45 36 29 23 19 17 22 11 7 6 7 10 11 21 15 2 14 13 19 22 14 5 6 9 9 6 7 6 6 6 11 38 48 53 63 64 71 74 79 59 46 34 13 8 18 28 37 38 36 44 45 51 58
51 41 31 29 28 23 26 15 10 8 10 17 10 9 6 7 20 11 8 14 11 9 9 4 8 11 6 5 5 10 35 39 41 41 54 59 60 62 58 61 62 43 33 13 4 13 20 26 33 38 35 41 39 44
48 36 32 37 36 20 12 13 8 6 19 12 19 24 5 23 17 13 15 13 5 5 9 9 8 4 3 5 17 32 42 46 41 55 54 50 58 59 45 46 56 35 18 27 3 8 16 19 24 32 34 28 36 46
36 35 39 37 39 11 10 9 12 8 7 6 12 7 5 15 17 18 24 18 20 12 13 6 5 6 11 22 30 35 34 39 46 50 55 60 56 55 42 36 48 41 35 14 8 9 8 10 18 20 24 27 27 27
51 42 33 36 33 11 8 7 13 10 7 5 6 6 16 26 24 19 17 17 17 9 7 7 9 10 11 21 23 27 34 42 47 45 49 61 59 52 33 32 39 45 46 18 21 19 6 11 11 10 18 24 25 28
54 38 28 32 10 11 8 12 7 2 7 7 4 5 15 18 16 9 14 12 8 5 5 5 8 8 17 21 30 32 39 40 37 36 40 45 47 41 33 36 41 39 32 13 10 3 16 7 10 16 23 28 25 26
46 35 20 11 8 16 9 13 9 10 5 7 10 6 7 10 18 21 10 8 8 10 5 5 3 7 9 14 26 37 47 44 42 41 41 39 34 29 30 29 31 28 34 7 14 8 23 17 17 23 24 22 24 25
42 18 11 15 15 10 8 9 11 7 7 6 4 6 8 14 25 8 5 8 18 13 5 7 3 9 10 17 29 37 48 47 39 35 39 36 34 29 32 27 24 18 30 3 12 10 29 26 23 19 27 27 27 27
13 15 11 11 16 9 10 9 11 7 7 8 5 4 7 15 5 5 6 14 21 13 8 7 2 10 11 18 26 34 43 43 40 34 35 33 32 37 33 27 24 22 28 8 12 22 22 29 27 18 30 29 28 24
8 15 16 16 12 10 10 11 14 10 8 10 10 12 7 7 6 7 7 26 15 10 13 8 9 13 13 16 24 34 43 43 34 33 32 31 29 34 42 41 39 28 26 18 2 17 13 26 38 28 37 38 31 27
7 10 13 18 12 13 8 11 24 11 8 7 8 7 6 7 6 7 21 21 19 15 11 8 6 9 11 16 21 28 34 40 38 32 22 31 33 32 31 37 38 37 31 19 9 10 7 31 28 47 46 48 38 27
13 8 12 19 15 21 6 7 9 9 9 11 22 6 10 6 4 17 21 20 23 16 11 9 8 6 10 14 20 30 32 39 41 34 24 34 40 46 34 27 26 28 29 23 14 20 19 34 37 29 40 59 50 40
11 12 15 14 19 9 14 9 10 10 18 24 8 6 7 9 22 30 32 26 22 17 15 9 12 11 11 13 21 26 33 43 53 56 56 58 60 60 55 49 43 34 29 28 19 29 29 27 50 48 30 67 59 49
12 22 13 15 10 8 10 11 9 11 17 33 31 49 52 43 31 29 35 28 23 21 16 12 7 8 15 17 21 22 27 34 45 50 50 52 54 54 55 56 52 47 41 34 29 19 35 30 46 53 45 66 79 67
15 29 14 11 11 17 19 30 33 38 42 42 60 64 41 35 34 28 26 19 17 17 19 17 13 11 16 17 18 22 23 27 38 44 40 39 41 47 52 55 53 51 48 43 36 29 25 41 45 45 46 68 86 79
21 18 24 8 10 25 50 41 20 30 35 41 31 35 31 18 10 13 14 10 12 15 12 8 7 9 11 11 12 18 16 26 38 46 41 38 38 42 46 51 54 54 52 48 41 32 28 37 49 50 58 57 80 85
31 20 25 13 19 17 23 21 13 16 23 17 17 33 20 12 9 11 14 16 14 13 11 9 8 4 4 6 7 15 16 29 37 36 31 33 33 36 39 44 50 51 53 49 41 30 5 19 34 40 55 54 74 83
Wind_Direction_500mb
273 279 286 294 302 310 318 322 329 333 337 341 340 339 338 336 334 340 360 228 315 275 286 277 277 266 258 232 234 308 343 332 346 348 239 311 301 336 317 295 227 193 182 210 220 218 273 156 152 195 217 291 267 281
266 275 281 290 298 305 311 318 323 328 330 336 338 336 334 334 332 327 324 276 287 274 265 288 280 265 262 269 263 255 237 304 289 359 355 342 321 309 324 283 310 284 180 233 215 229 243 223 235 274 284 278 288 276
263 268 275 282 291 297 305 312 318 323 325 329 333 333 331 329 327 312 306 316 313 299 310 302 321 322 320 238 253 222 247 231 228 254 270 279 265 14 284 268 304 306 320 250 344 284 333 316 284 281 293 261 281 282
260 265 271 277 286 293 301 306 313 324 323 324 330 329 328 326 324 320 312 312 279 273 281 280 307 306 308 255 265 254 232 222 217 242 238 238 264 239 267 281 289 270 306 270 259 288 323 315 310 300 295 278 284 296
258 262 268 274 281 289 297 303 314 326 322 320 328 325 326 325 323 328 339 348 240 213 290 296 323 339 349 303 257 243 220 227 205 191 207 227 255 280 273 274 260 217 232 260 279 291 280 277 292 293 304 302 303 298
254 259 264 268 276 286 295 301 311 322 319 318 327 321 323 326 330 336 249 33 42 233 291 314 312 322 344 333 289 218 218 219 219 197 243 228 237 227 264 259 241 270 307 309 291 301 291 302 259 326 325 330 322 309
250 256 261 265 272 282 289 298 314 319 320 320 325 315 320 329 336 323 303 321 359 76 270 300 307 312 355 17 325 213 216 210 211 222 225 229 240 213 256 261 276 297 298 311 304 286 294 273 317 331 333 328 335 327
246 252 257 261 269 278 286 298 312 321 318 323 321 308 308 308 337 347 348 345 323 262 279 335 283 311 340 348 147 349 240 221 226 243 233 234 233 205 251 250 277 290 303 320 304 285 303 330 336 351 340 334 336 330
243 249 254 258 265 273 282 302 315 319 320 328 322 312 332 141 341 329 311 317 269 230 8 297 285 287 329 324 303 222 197 221 234 223 227 203 218 239 252 281 295 289 304 292 307 317 333 343 349 345 349 342 341 334
242 250 251 254 260 267 285 303 316 318 329 335 320 339 119 116 296 320 20 209 148 185 223 252 271 273 311 311 291 336 197 231 253 224 180 212 237 288 318 334 313 295 296 293 314 341 348 354 356 349 340 344 340 333
235 241 245 247 253 262 288 308 316 324 339 349 325 248 312 277 258 285 262 213 169 216 224 243 246 261 291 275 273 280 277 242 263 271 232 224 42 336 343 346 350 12 34 6 359 12 13 358 354 353 357 348 350 346
234 236 239 240 242 263 290 308 315 328 336 333 323 345 59 63 223 260 223 164 210 227 214 226 263 265 281 270 330 295 280 304 263 347 244 31 330 334 332 335 319 333 30 38 23 15 1 0 2 3 1 353 357 7
229 231 230 230 232 259 286 300 303 324 331 339 28 13 213 194 43 239 340 355 332 224 293 298 308 287 239 257 269 326 295 283 324 15 29 333 330 338 347 335 339 355 51 30 27 14 8 7 13 13 18 11 15 24
228 225 223 219 229 248 274 277 289 307 224 215 202 323 167 184 259 355 158 240 347 348 335 324 297 253 267 45 154 304 319 312 51 16 351 324 329 332 341 2 12 19 44 23 20 25 22 17 24 24 33 31 32 45
221 215 217 216 228 232 248 253 276 225 205 240 252 220 211 302 62 44 34 12 1 348 336 323 313 225 213 6 288 333 326 34 42 326 304 333 337 341 347 355 359 4 2 10 14 26 33 32 36 40 42 46 50 56
207 213 217 215 216 209 210 197 157 159 201 247 243 280 292 51 11 6 359 27 8 356 351 331 338 28 13 347 19 19 42 25 346 329 335 336 333 340 348 348 357 354 346 323 10 31 43 44 44 52 52 52 54 57
200 213 214 204 187 180 177 158 167 197 233 236 238 260 260 269 304 65 34 8 346 2 334 12 35 18 334 27 35 39 1 328 320 325 333 334 335 340 345 359 5 355 10 317 338 42 48 51 47 55 58 58 60 60
208 208 199 183 164 161 162 166 182 211 236 238 248 229 248 103 105 74 32 8 7 358 359 79 56 28 38 33 5 328 318 318 320 333 332 334 339 339 346 358 352 2 16 50 22 40 60 53 49 53 55 53 64 72
206 198 188 159 163 145 154 183 195 240 233 229 247 263 232 111 92 79 33 7 64 89 95 58 61 57 15 14 328 324 324 325 331 336 329 332 336 344 351 359 2 7 17 25 131 69 48 72 75 67 63 62 66 68
188 172 155 165 164 154 171 202 196 233 250 210 210 224 178 144 119 69 49 57 89 71 61 56 60 30 344 327 325 319 334 340 339 333 328 331 337 345 356 359 5 25 348 355 4 184 116 80 95 88 80 73 77 70
154 147 152 168 180 189 206 198 193 215 230 230 220 208 148 140 132 106 76 55 58 44 82 77 21 354 346 350 360 349 345 337 336 329 325 330 340 343 355 3 8 3 1 4 357 204 197 113 98 98 98 96 88 87
157 154 159 160 170 187 250 220 214 184 203 222 242 224 145 147 153 130 116 63 81 89 107 45 350 9 15 8 6 2 352 347 345 352 352 348 342 344 353 4 359 353 6 318 359 300 187 158 91 128 123 114 112 108
146 147 141 162 177 200 245 202 208 202 171 207 184 187 175 137 145 138 93 110 129 154 98 76 41 18 355 353 7 6 5 2 359 359 354 348 353 353 354 349 349 352 353 357 225 11 197 184 155 139 136 136 130 124
147 152 167 191 196 203 213 203 201 217 198 149 166 215 136 127 149 99 110 121 153 155 87 118 42 10 20 8 10 4 359 360 3 13 7 356 358 4 354 353 3 5 358 286 208 255 188 184 180 158 158 153 147 142
161 187 188 194 192 204 200 181 184 195 187 168 205 179 147 144 101 95 132 140 146 132 123 151 80 36 7 6 2 359 1 4 6 11 8 5 360 355 1 9 15 14 14 118 127 139 159 190 196 183 177 170 165 156
185 196 187 199 191 202 206 177 187 173 182 186 196 137 101 87 93 135 154 154 157 145 144 122 48 17 15 11 359 356 357 3 4 14 16 6 358 353 352 354 354 2 8 17 68 205 212 177 195 193 184 187 188 176
204 209 199 211 220 212 238 196 158 139 163 204 161 117 112 124 145 133 144 162 160 142 116 91 53 11 3 6 358 346 350 7 11 6 6 13 16 7 353 354 349 342 343 340 338 193 198 185 185 200 199 200 206 205
222 224 209 196 218 229 244 168 143 163 197 200 141 110 137 145 124 156 173 164 128 124 107 89 55 17 22 20 4 351 354 358 3 15 27 31 26 17 5 347 334 328 328 324 279 250 248 207 197 189 211 208 206 206
228 219 214 228 220 229 200 182 179 176 193 162 98 92 108 96 143 146 137 138 145 144 140 137 93 91 37 22 6 360 359 359 360 3 7 7 7 10 5 358 353 343 331 321 304 242 244 225 204 207 212 207 213 209
238 214 224 198 154 194 205 152 133 214 175 141 113 114 112 113 117 139 144 155 155 145 124 125 113 98 48 22 21 11 1 358 358 358 356 357 355 356 358 358 353 351 347 335 320 288 229 235 203 207 198 197 203 200
210 201 215 201 169 175 164 137 124 121 118 117 133 130 132 123 131 132 141 153 169 171 164 133 110 83 48 27 18 4 1 356 347 346 347 352 357 359 1 0 357 356 353 344 330 311 271 225 219 220 197 199 202 200
202 219 176 162 170 174 153 136 104 121 115 119 125 130 128 120 108 147 147 168 148 137 146 137 126 60 35 14 11 10 353 336 333 337 341 353 3 5 5 5 4 5 358 351 342 325 295 232 215 214 213 208 202 199
214 208 186 164 151 138 143 118 127 144 140 125 141 146 120 109 119 150 159 161 153 151 154 147 130 93 27 11 358 358 328 326 327 334 342 354 5 8 10 13 14 14 13 11 6 358 339 195 204 212 211 194 189 185
Wind_Speed_850mb
39 39 35 36 37 37 38 40 39 42 44 43 45 45 42 41 39 31 13 10 12 17 57 56 47 47 29 21 6 14 20 8 9 4 3 5 5 6 8 6 5 11 10 7 5 9 13 18 9 10 11 26 32 43
40 40 38 34 37 37 37 37 39 39 44 45 44 44 42 40 36 30 25 14 26 31 49 80 75 73 75 82 56 24 19 10 7 3 5 6 6 6 4 6 5 5 8 4 11 11 13 24 29 36 51 45 67 38
42 40 40 36 36 38 38 37 38 41 45 47 45 44 42 40 36 29 39 35 30 27 46 17 12 13 26 14 12 22 24 26 18 18 4 5 9 4 4 7 7 8 11 7 11 8 16 46 50 37 38 43 32 35
44 42 42 38 36 39 38 38 38 39 46 46 45 46 44 42 40 39 42 39 20 14 11 21 35 54 28 35 36 39 41 19 17 17 8 5 4 8 6 8 20 19 15 10 12 18 37 35 35 63 47 34 40 50
47 44 43 39 37 39 39 38 37 39 45 45 42 45 44 44 44 38 15 14 6 14 10 33 58 22 30 13 22 31 47 43 22 7 6 5 8 8 6 6 8 9 8 5 11 29 31 37 54 17 27 45 58 53
48 46 44 40 37 38 39 39 38 38 43 43 38 42 40 40 40 30 1 15 16 13 10 9 28 31 42 40 15 22 41 46 33 11 8 10 16 5 6 7 14 22 36 49 40 44 49 55 18 29 44 45 46 49
49 47 45 41 37 37 37 37 38 43 45 39 35 38 34 28 30 12 5 0 5 1 8 13 18 21 41 37 7 21 37 24 18 9 11 9 10 11 5 12 30 38 46 43 39 50 45 15 18 36 31 34 45 49
50 47 46 41 36 36 36 35 37 42 43 36 33 35 29 23 6 7 10 12 8 10 6 4 8 20 20 12 3 5 5 9 9 9 5 7 6 14 9 22 35 36 40 35 37 13 14 20 27 33 44 40 48 49
49 48 46 40 35 34 33 33 38 42 38 33 29 25 6 7 3 10 22 20 6 7 3 4 5 7 24 17 13 1 5 5 8 5 6 6 4 8 15 26 38 45 29 39 24 13 18 29 37 35 43 43 49 48
49 48 46 39 34 31 28 30 37 37 34 27 8 3 4 6 9 24 3 1 3 4 7 5 8 7 17 13 8 9 5 3 5 9 10 7 6 36 37 52 53 44 25 15 15 25 28 33 38 41 35 40 49 42
53 49 45 38 31 26 24 28 31 30 27 13 7 3 8 11 5 3 4 5 7 5 6 12 16 10 14 6 6 8 5 4 5 3 5 5 4 32 72 67 47 14 11 18 19 16 21 27 32 35 35 45 47 36
51 47 43 35 27 21 21 25 24 21 18 16 9 4 3 2 3 3 6 9 6 4 10 10 18 20 14 9 6 10 5 5 7 12 6 7 10 55 63 70 38 13 16 14 13 19 34 40 33 32 40 48 45 35
50 45 40 32 24 19 17 22 20 14 13 4 2 1 2 1 4 4 6 5 6 5 7 13 13 12 11 7 5 4 5 5 25 7 8 5 47 77 84 65 21 10 9 12 17 32 47 45 34 39 35 35 34 36
48 43 36 31 25 17 16 18 12 7 3 4 5 6 7 4 5 2 2 3 5 16 22 29 19 8 7 4 0 4 5 7 7 10 6 15 59 70 65 66 52 30 13 17 25 34 45 46 36 37 35 40 36 41
46 39 37 33 23 17 14 11 5 5 7 5 5 4 7 4 13 18 18 24 28 34 45 36 23 8 1 3 1 2 6 10 6 4 7 50 72 77 76 68 57 36 17 19 25 32 46 47 40 38 40 46 49 50
43 42 40 28 23 16 13 9 10 7 5 5 7 3 6 9 12 18 15 20 23 29 30 14 5 8 10 8 9 12 6 7 10 16 51 66 72 72 72 75 58 42 23 12 16 25 39 46 42 40 41 49 53 57
45 45 36 29 23 19 17 22 11 7 6 7 10 11 21 15 2 14 13 19 22 14 5 6 9 9 6 7 6 6 6 11 38 48 53 63 64 71 74 79 59 46 34 13 8 18 28 37 38 36 44 45 51 58
51 41 31 29 28 23 26 15 10 8 10 17 10 9 6 7 20 11 8 14 11 9 9 4 8 11 6 5 5 10 35 39 41 41 54 59 60 62 58 61 62 43 33 13 4 13 20 26 33 38 35 41 39 44
48 36 32 37 36 20 12 13 8 6 19 12 19 24 5 23 17 13 15 13 5 5 9 9 8 4 3 5 17 32 42 46 41 55 54 50 58 59 45 46 56 35 18 27 3 8 16 19 24 32 34 28 36 46
36 35 39 37 39 11 10 9 12 8 7 6 12 7 5 15 17 18 24 18 20 12 13 6 5 6 11 22 30 35 34 39 46 50 55 60 56 55 42 36 48 41 35 14 8 9 8 10 18 20 24 27 27 27
51 42 33 36 33 11 8 7 13 10 7 5 6 6 16 26 24 19 17 17 17 9 7 7 9 10 11 21 23 27 34 42 47 45 49 61 59 52 33 32 39 45 46 18 21 19 6 11 11 10 18 24 25 28
54 38 28 32 10 11 8 12 7 2 7 7 4 5 15 18 16 9 14 12 8 5 5 5 8 8 17 21 30 32 39 40 37 36 40 45 47 41 33 36 41 39 32 13 10 3 16 7 10 16 23 28 25 26
46 35 20 11 8 16 9 13 9 10 5 7 10 6 7 10 18 21 10 8 8 10 5 5 3 7 9 14 26 37 47 44 42 41 41 39 34 29 30 29 31 28 34 7 14 8 23 17 17 23 24 22 24 25
42 18 11 15 15 10 8 9 11 7 7 6 4 6 8 14 25 8 5 8 18 13 5 7 3 9 10 17 29 37 48 47 39 35 39 36 34 29 32 27 24 18 30 3 12 10 29 26 23 19 27 27 27 27
13 15 11 11 16 9 10 9 11 7 7 8 5 4 7 15 5 5 6 14 21 13 8 7 2 10 11 18 26 34 43 43 40 34 35 33 32 37 33 27 24 22 28 8 12 22 22 29 27 18 30 29 28 24
8 15 16 16 12 10 10 11 14 10 8 10 10 12 7 7 6 7 7 26 15 10 13 8 9 13 13 16 24 34 43 43 34 33 32 31 29 34 42 41 39 28 26 18 2 17 13 26 38 28 37 38 31 27
7 10 13 18 12 13 8 11 24 11 8 7 8 7 6 7 6 7 21 21 19 15 11 8 6 9 11 16 21 28 34 40 38 32 22 31 33 32 31 37 38 37 31 19 9 10 7 31 28 47 46 48 38 27
13 8 12 19 15 21 6 7 9 9 9 11 22 6 10 6 4 17 21 20 23 16 11 9 8 6 10 14 20 30 32 39 41 34 24 34 40 46 34 27 26 28 29 23 14 20 19 34 37 29 40 59 50 40
11 12 15 14 19 9 14 9 10 10 18 24 8 6 7 9 22 30 32 26 22 17 15 9 12 11 11 13 21 26 33 43 53 56 56 58 60 60 55 49 43 34 29 28 19 29 29 27 50 48 30 67 59 49
12 22 13 15 10 8 10 11 9 11 17 33 31 49 52 43 31 29 35 28 23 21 16 12 7 8 15 17 21 22 27 34 45 50 50 52 54 54 55 56 52 47 41 34 29 19 35 30 46 53 45 66 79 67
15 29 14 11 11 17 19 30 33 38 42 42 60 64 41 35 34 28 26 19 17 17 19 17 13 11 16 17 18 22 23 27 38 44 40 39 41 47 52 55 53 51 48 43 36 29 25 41 45 45 46 68 86 79
21 18 24 8 10 25 50 41 20 30 35 41 31 35 31 18 10 13 14 10 12 15 12 8 7 9 11 11 12 18 16 26 38 46 41 38 38 42 46 51 54 54 52 48 41 32 28 37 49 50 58 57 80 85
31 20 25 13 19 17 23 21 13 16 23 17 17 33 20 12 9 11 14 16 14 13 11 9 8 4 4 6 7 15 16 29 37 36 31 33 33 36 39 44 50 51 53 49 41 30 5 19 34 40 55 54 74 83
Wind_Direction_850mb
273 279 286 294 302 310 318 322 329 333 337 341 340 339 338 336 334 340 360 228 315 275 286 277 277 266 258 232 234 308 343 332 346 348 239 311 301 336 317 295 227 193 182 210 220 218 273 156 152 195 217 291 267 281
266 275 281 290 298 305 311 318 323 328 330 336 338 336 334 334 332 327 324 276 287 274 265 288 280 265 262 269 263 255 237 304 289 359 355 342 321 309 324 283 310 284 180 233 215 229 243 223 235 274 284 278 288 276
263 268 275 282 291 297 305 312 318 323 325 329 333 333 331 329 327 312 306 316 313 299 310 302 321 322 320 238 253 222 247 231 228 254 270 279 265 14 284 268 304 306 320 250 344 284 333 316 284 281 293 261 281 282
260 265 271 277 286 293 301 306 313 324 323 324 330 329 328 326 324 320 312 312 279 273 281 280 307 306 308 255 265 254 232 222 217 242 238 238 264 239 267 281 289 270 306 270 259 288 323 315 310 300 295 278 284 296
258 262 268 274 281 289 297 303 314 326 322 320 328 325 326 325 323 328 339 348 240 213 290 296 323 339 349 303 257 243 220 227 205 191 207 227 255 280 273 274 260 217 232 260 279 291 280 277 292 293 304 302 303 298
254 259 264 268 276 286 295 301 311 322 319 318 327 321 323 326 330 336 249 33 42 233 291 314 312 322 344 333 289 218 218 219 219 197 243 228 237 227 264 259 241 270 307 309 291 301 291 302 259 326 325 330 322 309
250 256 261 265 272 282 289 298 314 319 320 320 325 315 320 329 336 323 303 321 359 76 270 300 307 312 355 17 325 213 216 210 211 222 225 229 240 213 256 261 276 297 298 311 304 286 294 273 317 331 333 328 335 327
246 252 257 261 269 278 286 298 312 321 318 323 321 308 308 308 337 347 348 345 323 262 279 335 283 311 340 348 147 349 240 221 226 243 233 234 233 205 251 250 277 290 303 320 304 285 303 330 336 351 340 334 336 330
243 249 254 258 265 273 282 302 315 319 320 328 322 312 332 141 341 329 311 317 269 230 8 297 285 287 329 324 303 222 197 221 234 223 227 203 218 239 252 281 295 289 304 292 307 317 333 343 349 345 349 342 341 334
242 250 251 254 260 267 285 303 316 318 329 335 320 339 119 116 296 320 20 209 148 185 223 252 271 273 311 311 291 336 197 231 253 224 180 212 237 288 318 334 313 295 296 293 314 341 348 354 356 349 340 344 340 333
235 241 245 247 253 262 288 308 316 324 339 349 325 248 312 277 258 285 262 213 169 216 224 243 246 261 291 275 273 280 277 242 263 271 232 224 42 336 343 346 350 12 34 6 359 12 13 358 354 353 357 348 350 346
234 236 239 240 242 263 290 308 315 328 336 333 323 345 59 63 223 260 223 164 210 227 214 226 263 265 281 270 330 295 280 304 263 347 244 31 330 334 332 335 319 333 30 38 23 15 1 0 2 3 1 353 357 7
229 231 230 230 232 259 286 300 303 324 331 339 28 13 213 194 43 239 340 355 332 224 293 298 308 287 239 257 269 326 295 283 324 15 29 333 330 338 347 335 339 355 51 30 27 14 8 7 13 13 18 11 15 24
228 225 223 219 229 248 274 277 289 307 224 215 202 323 167 184 259 355 158 240 347 348 335 324 297 253 267 45 154 304 319 312 51 16 351 324 329 332 341 2 12 19 44 23 20 25 22 17 24 24 33 31 32 45
221 215 217 216 228 232 248 253 276 225 205 240 252 220 211 302 62 44 34 12 1 348 336 323 313 225 213 6 288 333 326 34 42 326 304 333 337 341 347 355 359 4 2 10 14 26 33 32 36 40 42 46 50 56
207 213 217 215 216 209 210 197 157 159 201 247 243 280 292 51 11 6 359 27 8 356 351 331 338 28 13 347 19 19 42 25 346 329 335 336 333 340 348 348 357 354 346 323 10 31 43 44 44 52 52 52 54 57
200 213 214 204 187 180 177 158 167 197 233 236 238 260 260 269 304 65 34 8 346 2 334 12 35 18 334 27 35 39 1 328 320 325 333 334 335 340 345 359 5 355 10 317 338 42 48 51 47 55 58 58 60 60
208 208 199 183 164 161 162 166 182 211 236 238 248 229 248 103 105 74 32 8 7 358 359 79 56 28 38 33 5 328 318 318 320 333 332 334 339 339 346 358 352 2 16 50 22 40 60 53 49 53 55 53 64 72
206 198 188 159 163 145 154 183 195 240 233 229 247 263 232 111 92 79 33 7 64 89 95 58 61 57 15 14 328 324 324 325 331 336 329 332 336 344 351 359 2 7 17 25 131 69 48 72 75 67 63 62 66 68
188 172 155 165 164 154 171 202 196 233 250 210 210 224 178 144 119 69 49 57 89 71 61 56 60 30 344 327 325 319 334 340 339 333 328 331 337 345 356 359 5 25 348 355 4 184 116 80 95 88 80 73 77 70
154 147 152 168 180 189 206 198 193 215 230 230 220 208 148 140 132 106 76 55 58 44 82 77 21 354 346 350 360 349 345 337 336 329 325 330 340 343 355 3 8 3 1 4 357 204 197 113 98 98 98 96 88 87
157 154 159 160 170 187 250 220 214 184 203 222 242 224 145 147 153 130 116 63 81 89 107 45 350 9 15 8 6 2 352 347 345 352 352 348 342 344 353 4 359 353 6 318 359 300 187 158 91 128 123 114 112 108
146 147 141 162 177 200 245 202 208 202 171 207 184 187 175 137 145 138 93 110 129 154 98 76 41 18 355 353 7 6 5 2 359 359 354 348 353 353 354 349 349 352 353 357 225 11 197 184 155 139 136 136 130 124
147 152 167 191 196 203 213 203 201 217 198 149 166 215 136 127 149 99 110 121 153 155 87 118 42 10 20 8 10 4 359 360 3 13 7 356 358 4 354 353 3 5 358 286 208 255 188 184 180 158 158 153 147 142
161 187 188 194 192 204 200 181 184 195 187 168 205 179 147 144 101 95 132 140 146 132 123 151 80 36 7 6 2 359 1 4 6 11 8 5 360 355 1 9 15 14 14 118 127 139 159 190 196 183 177 170 165 156
185 196 187 199 191 202 206 177 187 173 182 186 196 137 101 87 93 135 154 154 157 145 144 122 48 17 15 11 359 356 357 3 4 14 16 6 358 353 352 354 354 2 8 17 68 205 212 177 195 193 184 187 188 176
204 209 199 211 220 212 238 196 158 139 163 204 161 117 112 124 145 133 144 162 160 142 116 91 53 11 3 6 358 346 350 7 11 6 6 13 16 7 353 354 349 342 343 340 338 193 198 185 185 200 199 200 206 205
222 224 209 196 218 229 244 168 143 163 197 200 141 110 137 145 124 156 173 164 128 124 107 89 55 17 22 20 4 351 354 358 3 15 27 31 26 17 5 347 334 328 328 324 279 250 248 207 197 189 211 208 206 206
228 219 214 228 220 229 200 182 179 176 193 162 98 92 108 96 143 146 137 138 145 144 140 137 93 91 37 22 6 360 359 359 360 3 7 7 7 10 5 358 353 343 331 321 304 242 244 225 204 207 212 207 213 209
238 214 224 198 154 194 205 152 133 214 175 141 113 114 112 113 117 139 144 155 155 145 124 125 113 98 48 22 21 11 1 358 358 358 356 357 355 356 358 358 353 351 347 335 320 288 229 235 203 207 198 197 203 200
210 201 215 201 169 175 164 137 124 121 118 117 133 130 132 123 131 132 141 153 169 171 164 133 110 83 48 27 18 4 1 356 347 346 347 352 357 359 1 0 357 356 353 344 330 311 271 225 219 220 197 199 202 200
202 219 176 162 170 174 153 136 104 121 115 119 125 130 128 120 108 147 147 168 148 137 146 137 126 60 35 14 11 10 353 336 333 337 341 353 3 5 5 5 4 5 358 351 342 325 295 232 215 214 213 208 202 199
214 208 186 164 151 138 143 118 127 144 140 125 141 146 120 109 119 150 159 161 153 151 154 147 130 93 27 11 358 358 328 326 327 334 342 354 5 8 10 13 14 14 13 11 6 358 339 195 204 212 211 194 189 185